Flag for Indonesia Weather past 2 weeks in Makassar, South Sulawesi, Indonesia

Now
75 °F

Passing clouds.


Feels Like: 75 °F
Forecast: 77 / 87 °F
Wind: 5 mph from East

Location: Ujung Pandang / Hasanuddin

Current Time: Jul 25, 2014 at 10:43:31 PM

Latest Report: Jul 25, 2014 at 10:00 PM


Visibility: 5 mi

Pressure: 29.92 "Hg

Humidity: 89%

Dew point: 72 °F

Location of MakassarLocation

Historic Weather in Makassar — Graph

°F

Makassar temperature yesterday

Maximum temperature yesterday: 90 °F (at 11:30 AM)
Minimum temperature yesterday: 68 °F (at 2:30 AM)
Average temperature yesterday: 79 °F

Past Weeks' High & Low Weather Summary

 TemperatureHumidityPressure
High93 °F (Jul 22, 1:30 PM)100% (Jul 17, 12:00 AM)29.95 "Hg (Jul 17, 12:00 AM)
Low68 °F (Jul 24, 2:30 AM)44% (Jul 22, 12:00 PM)29.74 "Hg (Jul 18, 2:30 PM)
Average80 °F80%29.85 "Hg
* Reported Jul 11 10:00 AM — Jul 25 10:00 PM, Makassar, Weather by CustomWeather, © 2014

Note: Actual official high and low records may vary slightly from our data, if they occured in-between our weather recording intervals... More about our weather records

Advertising

Makassar weather history for previous 24 hours

 ConditionsComfort  
Time TempWeatherWind HumidityBarometerVisibility
10:00 PM
Jul 25
75 °FPassing clouds.5 mph89%29.92 "Hg5 mi
9:30 PM77 °FPassing clouds.3 mph89%29.92 "Hg5 mi
9:00 PM77 °FPassing clouds.5 mph89%29.92 "Hg5 mi
8:30 PM79 °FPassing clouds.2 mph89%29.92 "Hg5 mi
8:00 PM79 °FPassing clouds.3 mph84%29.89 "Hg5 mi
7:30 PM79 °FPassing clouds.7 mph84%29.89 "Hg5 mi
7:00 PM81 °FPassing clouds.5 mph79%29.86 "Hg5 mi
6:30 PM84 °FPassing clouds.5 mph70%29.86 "Hg5 mi
6:00 PM84 °FPassing clouds.5 mph70%29.86 "HgN/A
5:30 PM86 °FPassing clouds.6 mph62%29.86 "HgN/A
5:00 PM88 °FPassing clouds.7 mph55%29.83 "HgN/A
4:30 PM88 °FPassing clouds.9 mph55%29.83 "HgN/A
4:00 PM88 °FPassing clouds.8 mph59%29.83 "HgN/A
3:30 PM90 °FPassing clouds.8 mph55%29.83 "HgN/A
3:00 PM91 °FPassing clouds.8 mph52%29.83 "HgN/A
2:30 PM91 °FPassing clouds.6 mph52%29.83 "HgN/A
2:00 PM91 °FPassing clouds.2 mph49%29.83 "HgN/A
1:30 PM91 °FPassing clouds.2 mph46%29.86 "HgN/A
1:00 PM91 °FPassing clouds.2 mph46%29.86 "HgN/A
12:30 PM90 °FPassing clouds.3 mph52%29.89 "HgN/A
12:00 PM90 °FPassing clouds.3 mph46%29.89 "HgN/A
11:30 AM90 °FPassing clouds.3 mph49%29.92 "HgN/A
11:00 AM88 °FPassing clouds.2 mph52%29.92 "HgN/A
10:30 AM88 °FPassing clouds.3 mph55%29.92 "HgN/A
10:00 AM86 °FPassing clouds.5 mph62%29.92 "HgN/A
9:30 AM84 °FPassing clouds.5 mph62%29.95 "HgN/A
9:00 AM82 °FPassing clouds.3 mph66%29.95 "HgN/A
8:30 AM79 °FPassing clouds.3 mph79%29.95 "HgN/A
8:00 AM77 °FPassing clouds.2 mph83%29.92 "HgN/A
7:30 AM75 °FPassing clouds.2 mph89%29.92 "HgN/A
7:00 AM73 °FPassing clouds.3 mph94%29.89 "HgN/A
6:30 AM73 °FPassing clouds.2 mph89%29.89 "HgN/A
6:00 AM73 °FPassing clouds.3 mph89%29.89 "Hg6 mi
5:30 AM73 °FPassing clouds.2 mph89%29.89 "Hg5 mi
5:00 AM73 °FPassing clouds.3 mph89%29.89 "Hg5 mi
4:30 AM73 °FPassing clouds.3 mph89%29.89 "Hg5 mi
4:00 AM73 °FPassing clouds.3 mph89%29.86 "Hg5 mi
3:30 AM73 °FPassing clouds.2 mph89%29.86 "Hg5 mi
3:00 AM73 °FPassing clouds.3 mph94%29.86 "Hg5 mi
2:30 AM73 °FPassing clouds.2 mph94%29.86 "Hg5 mi
2:00 AM73 °FPassing clouds.3 mph94%29.86 "Hg5 mi
1:30 AM73 °FPassing clouds.3 mph94%29.89 "Hg5 mi
1:00 AM75 °FPassing clouds.5 mph89%29.89 "Hg5 mi
12:30 AM75 °FPassing clouds.5 mph89%29.86 "Hg5 mi
12:00 AM75 °FPassing clouds.5 mph89%29.86 "Hg5 mi
11:30 PM
Jul 24
75 °FPassing clouds.3 mph89%29.86 "Hg5 mi
11:00 PM75 °FPassing clouds.2 mph89%29.89 "Hg5 mi
10:30 PM75 °FPassing clouds.2 mph89%29.89 "Hg5 mi
10:00 PM75 °FPassing clouds.2 mph89%29.89 "Hg5 mi
Weather by CustomWeather, © 2014

See weather overviewHow to use our weather pages